EW3309 Weather Reports


Display with metric or nautical units.
time (UTC)temp
F
wind
direction
speed
MPH
gust
MPH
rain 1hr
in
rain 24hr
in
rain mn
in
humidity
%
barometer
mb
20260831001600 88 270 0.0 0.0 0.00 0.00 0.00 50 1009.0
20260831000058 89 200 0.0 0.0 0.00 0.00 0.00 49 1008.9
20260830234605 90 227 0.0 0.0 0.00 0.00 0.00 48 1008.9
20260830233052 91 244 0.0 0.0 0.00 0.00 0.00 46 1008.9
20260830231600 92 264 0.0 0.0 0.00 0.00 0.00 43 1009.0
20260830230051 92 202 0.0 0.0 0.00 0.00 0.00 41 1009.0
20260830224600 93 180 0.0 0.0 0.00 0.00 0.00 38 1009.1
20260830223048 93 217 0.0 0.0 0.00 0.00 0.00 35 1009.2
20260830221542 93 248 0.0 0.0 0.00 0.00 0.00 35 1009.4
20260830220041 93 213 0.0 0.0 0.00 0.00 0.00 33 1009.6
20260830214542 93 225 0.0 0.0 0.00 0.00 0.00 32 1009.6
20260830213038 93 237 0.0 0.0 0.00 0.00 0.00 31 1009.7
20260830211538 93 252 0.0 0.0 0.00 0.00 0.00 31 1009.8
20260830210044 93 253 0.0 0.0 0.00 0.00 0.00 32 1010.1
20260830204539 93 237 0.0 0.0 0.00 0.00 0.00 30 1010.2
20260830203034 92 279 0.0 0.0 0.00 0.00 0.00 34 1010.3
20260830201532 91 225 0.0 0.0 0.00 0.00 0.00 36 1010.2
20260830200030 91 241 0.0 0.0 0.00 0.00 0.00 37 1010.2
20260830194529 91 287 0.0 0.0 0.00 0.00 0.00 38 1010.3
20260830193025 91 254 0.0 0.0 0.00 0.00 0.00 42 1010.4
20260830191522 90 258 0.0 0.0 0.00 0.00 0.00 43 1010.5
20260830190020 89 263 0.0 0.0 0.00 0.00 0.00 44 1010.6
20260830184515 88 230 0.0 0.0 0.00 0.00 0.00 48 1010.6
20260830183012 88 259 0.0 0.0 0.00 0.00 0.00 50 1010.7
20260830181509 87 243 0.0 0.0 0.00 0.00 0.00 52 1010.9
20260830180005 85 265 0.0 0.0 0.00 0.00 0.00 58 1010.8
20260830174600 83 243 0.0 0.0 0.00 0.00 0.00 65 1010.8
20260830173111 81 242 0.0 0.0 0.00 0.00 0.00 70 1010.7
20260830171552 79 223 0.0 0.0 0.00 0.00 0.00 75 1010.6
20260830170054 77 224 0.0 0.0 0.00 0.00 0.00 78 1010.6
20260830164549 76 199 0.0 0.0 0.00 0.00 0.00 81 1010.4
20260830163049 74 211 0.0 0.0 0.00 0.00 0.00 84 1010.5
20260830161543 74 149 0.0 0.0 0.00 0.00 0.00 85 1010.6
20260830160032 73 215 0.0 0.0 0.00 0.00 0.00 86 1010.5
20260830154532 73 213 0.0 0.0 0.00 0.00 0.00 87 1010.7
20260830153042 73 212 0.0 0.0 0.00 0.00 0.00 87 1010.7
20260830151523 73 225 0.0 0.0 0.00 0.00 0.00 88 1010.6
20260830150019 72 194 0.0 0.0 0.00 0.00 0.00 88 1010.6
20260830144518 72 190 0.0 0.0 0.00 0.00 0.00 89 1010.6
20260830143014 72 194 0.0 0.0 0.00 0.00 0.00 89 1010.6
20260830141516 72 194 0.0 0.0 0.00 0.00 0.00 89 1010.5
20260830140006 71 179 0.0 0.0 0.00 0.00 0.00 89 1010.4
20260830134508 71 179 0.0 0.0 0.00 0.00 0.00 89 1010.2
20260830133101 70 179 0.0 0.0 0.00 0.00 0.00 88 1010.2
20260830131627 70 179 0.0 0.0 0.00 0.00 0.00 88 1010.1
20260830130101 70 179 0.0 0.0 0.00 0.00 0.00 88 1010.0
20260830124558 70 329 0.0 0.0 0.00 0.00 0.00 87 1010.0
20260830123101 70 329 0.0 0.0 0.00 0.00 0.00 87 1010.0
20260830121557 70 329 0.0 0.0 0.00 0.00 0.00 87 1009.9
20260830120057 70 329 0.0 0.0 0.00 0.00 0.00 88 1009.9
20260830114601 70 329 0.0 0.0 0.00 0.00 0.00 87 1010.0
20260830113054 69 329 0.0 0.0 0.00 0.00 0.00 86 1009.9
20260830111554 69 329 0.0 0.0 0.00 0.00 0.00 84 1009.8
20260830104557 70 329 0.0 0.0 0.00 0.00 0.00 85 1009.7
20260830103047 70 329 0.0 0.0 0.00 0.00 0.00 84 1009.7
20260830101546 70 329 0.0 0.0 0.00 0.00 0.00 85 1009.6
20260830100045 71 329 0.0 0.0 0.00 0.00 0.00 84 1009.5
20260830094544 71 329 0.0 0.0 0.00 0.00 0.00 85 1009.4
20260830093045 71 329 0.0 0.0 0.00 0.00 0.00 83 1009.6
20260830091546 71 329 0.0 0.0 0.00 0.00 0.00 81 1009.6
20260830090042 71 329 0.0 0.0 0.00 0.00 0.00 81 1009.8
20260830084540 71 329 0.0 0.0 0.00 0.00 0.00 78 1009.6
20260830083049 71 329 0.0 0.0 0.00 0.00 0.00 79 1009.5
20260830081536 72 329 0.0 0.0 0.00 0.00 0.00 80 1009.5
20260830080035 72 329 0.0 0.0 0.00 0.00 0.00 79 1009.6
20260830074532 72 329 0.0 0.0 0.00 0.00 0.00 76 1009.8
20260830073028 73 329 0.0 0.0 0.00 0.00 0.00 78 1009.8
20260830071526 73 329 0.0 0.0 0.00 0.00 0.00 76 1009.8
20260830070024 73 329 0.0 0.0 0.00 0.00 0.00 74 1009.7
20260830064523 74 320 0.0 0.0 0.00 0.00 0.00 73 1009.7
20260830063022 74 320 0.0 0.0 0.00 0.00 0.00 72 1009.7
20260830061527 75 320 0.0 0.0 0.00 0.00 0.00 72 1009.7
20260830060022 75 320 0.0 0.0 0.00 0.00 0.00 73 1009.7
20260830054524 76 320 0.0 0.0 0.00 0.00 0.00 71 1009.6
20260830053020 76 320 0.0 0.0 0.00 0.00 0.00 70 1009.6
20260830051520 76 320 0.0 0.0 0.00 0.00 0.00 68 1009.7
20260830050020 77 320 0.0 0.0 0.00 0.00 0.00 68 1009.7
20260830044519 77 320 0.0 0.0 0.00 0.00 0.00 66 1009.7
20260830043019 78 320 0.0 0.0 0.00 0.00 0.00 67 1009.7
20260830041525 79 320 0.0 0.0 0.00 0.00 0.00 67 1009.5
20260830040023 79 320 0.0 0.0 0.00 0.00 0.00 67 1009.1
20260830034518 79 320 0.0 0.0 0.00 0.00 0.00 67 1009.0
20260830033016 80 319 0.0 0.0 0.00 0.00 0.00 67 1008.8
20260830031516 81 324 0.0 0.0 0.00 0.00 0.00 65 1008.6
20260830030016 82 263 0.0 0.0 0.00 0.00 0.00 62 1008.4
20260830024520 84 262 0.0 0.0 0.00 0.00 0.00 61 1008.3
20260830023015 85 246 0.0 0.0 0.00 0.00 0.00 58 1008.2
20260830021515 86 246 0.0 0.0 0.00 0.00 0.00 53 1008.1
20260830020026 88 261 0.0 0.0 0.00 0.00 0.00 50 1008.1
20260830014514 89 263 0.0 0.0 0.00 0.00 0.00 49 1008.2
20260830013013 91 287 0.0 0.0 0.00 0.00 0.00 46 1008.1
20260830011513 92 250 0.0 0.0 0.00 0.00 0.00 43 1008.2
20260830010015 93 250 0.0 0.0 0.00 0.00 0.00 41 1008.2
20260830004512 93 259 0.0 0.0 0.00 0.00 0.00 40 1008.1
20260830003011 94 281 0.0 0.0 0.00 0.00 0.00 39 1008.3